Stations météo

Publicité
Bournemouth Airport, Grande-Bretagne (3862): Température de l'air & dewpoint: 16.07.2019 17:00:00 - 22.07.2019 17:00:00 (BST)Bournemouth Airport, Grande-Bretagne (3862): Température de l'air -20cm & Température de l'air -100cm: 16.07.2019 17:00:00 - 22.07.2019 17:00:00 (BST)Bournemouth Airport, Grande-Bretagne (3862): Vitesse du vent & gusts: 16.07.2019 17:00:00 - 22.07.2019 17:00:00 (BST)Bournemouth Airport, Grande-Bretagne (3862): Direction du vent: 16.07.2019 17:00:00 - 22.07.2019 17:00:00 (BST)Bournemouth Airport, Grande-Bretagne (3862): reduced air pressure: 16.07.2019 17:00:00 - 22.07.2019 17:00:00 (BST)Bournemouth Airport, Grande-Bretagne (3862): visibility: 16.07.2019 17:00:00 - 22.07.2019 17:00:00 (BST)Bournemouth Airport, Grande-Bretagne (3862): Ensoleillement: 16.07.2019 17:00:00 - 22.07.2019 17:00:00 (BST)Bournemouth Airport, Grande-Bretagne (3862): Quantités de précipitations: 16.07.2019 17:00:00 - 22.07.2019 17:00:00 (BST)
Date & Time tt [°C] td [°C] tt -20cm [°C] tt -100cm [°C] ff [km/h] ff [knt] fx [km/h] fx [knt] dd ppp [hPa] vv [km] sd [min] rr [mm]
22.07.2019 17:00:00 23,5 17,8 - - 13 7 - - WSW 1022,4 10 36 0,0
22.07.2019 16:00:00 22,3 17,9 - - 11 6 - - SSW 1022,8 35 0 0,0
22.07.2019 15:00:00 22,1 18,2 - - 13 7 - - SW 1023,1 28 0 0,0
22.07.2019 14:00:00 20,8 17,8 - - 15 8 - - WSW 1023,4 17 0 0,0
22.07.2019 13:00:00 20,1 17,8 - - 15 8 - - SW 1023,7 10 0 0,0
22.07.2019 12:00:00 20,2 17,7 - - 13 7 - - SSW 1023,6 19 0 0,0
22.07.2019 11:00:00 19,7 17,6 - - 11 6 - - WSW 1023,4 10 0 0,0
22.07.2019 10:00:00 19,1 17,5 19,2 17,0 13 7 - - WSW 1023,3 16 0 0,0
22.07.2019 09:00:00 18,8 17,1 - - 13 7 - - SW 1023,0 22 0 0,0
22.07.2019 08:00:00 18,7 16,9 - - 13 7 - - WSW 1022,7 18 0 0,0
22.07.2019 07:00:00 18,0 16,6 - - 9 5 - - SW 1022,6 15 0 0,0
22.07.2019 06:00:00 17,6 16,0 - - 11 6 - - WSW 1022,0 10 0 0,0
22.07.2019 05:00:00 17,2 15,8 - - 11 6 - - SW 1022,0 18 0 0,0
22.07.2019 04:00:00 17,1 15,6 - - 11 6 - - SW 1022,2 20 0 0,0
22.07.2019 03:00:00 17,5 15,4 - - 15 8 - - WSW 1022,3 24 0 0,0
22.07.2019 02:00:00 17,7 15,9 - - 18 10 - - SW 1022,2 23 0 0,0
22.07.2019 01:00:00 17,6 15,5 - - 11 6 - - SSW 1022,6 26 - 0,0
22.07.2019 00:00:00 17,6 15,5 - - 13 7 - - SW 1022,6 23 0 0,0
21.07.2019 23:00:00 17,4 15,3 - - 16 9 - - SW 1022,5 10 0 0,0
21.07.2019 22:00:00 17,1 15,0 - - 11 6 - - SSW 1022,4 35 0 0,0
21.07.2019 21:00:00 17,6 15,1 - - 9 5 - - SW 1022,3 35 18 0,0
21.07.2019 20:00:00 18,9 13,9 - - 15 8 - - SSW 1021,9 65 24 0,0
21.07.2019 19:00:00 20,3 11,8 - - 15 8 - - SW 1021,7 75 60 0,0
21.07.2019 18:00:00 21,0 12,5 - - 18 10 - - SW 1021,6 10 60 0,0
21.07.2019 17:00:00 20,9 14,4 - - 22 12 - - WSW 1022,1 55 54 0,0
21.07.2019 16:00:00 21,6 13,4 - - 22 12 - - WSW 1022,3 10 60 0,0
21.07.2019 15:00:00 22,2 14,2 - - 22 12 - - WSW 1022,3 10 54 0,0
21.07.2019 14:00:00 22,1 13,2 - - 24 13 - - SW 1022,0 75 6 0,0
21.07.2019 13:00:00 21,1 13,5 - - 21 11 - - SW 1022,2 75 0 0,0
21.07.2019 12:00:00 20,7 13,6 - - 24 13 - - SW 1021,9 75 6 0,0
21.07.2019 11:00:00 19,8 15,0 - - 16 9 - - SW 1021,5 60 0 0,0
21.07.2019 10:00:00 19,7 15,1 19,0 17,0 16 9 - - SW 1021,1 65 24 0,0
21.07.2019 09:00:00 18,0 15,3 - - 13 7 - - WSW 1020,9 45 0 0,0
21.07.2019 08:00:00 14,9 13,9 - - 4 2 - - ENE 1020,5 30 0 0,0
21.07.2019 07:00:00 13,1 12,5 - - 2 1 - - ENE 1020,2 30 0 0,0
21.07.2019 06:00:00 10,3 9,8 - - 2 1 - - NE 1019,7 28 0 0,0
21.07.2019 05:00:00 10,4 9,5 - - 4 2 - - W 1019,1 45 0 0,0
21.07.2019 04:00:00 10,9 9,6 - - 0 0 - - N 1018,4 40 0 0,0
21.07.2019 03:00:00 12,2 10,7 - - 4 2 - - SW 1018,4 35 0 0,0
21.07.2019 02:00:00 12,9 10,9 - - 4 2 - - W 1018,3 45 0 0,0
21.07.2019 01:00:00 12,1 10,6 - - 5 3 - - WNW 1017,8 10 - 0,0
21.07.2019 00:00:00 12,5 9,8 - - 4 2 - - W 1017,2 35 0 0,0
20.07.2019 23:00:00 14,9 10,9 - - 2 1 - - NW 1016,7 55 0 0,0
20.07.2019 22:00:00 15,8 10,9 - - 9 5 - - WNW 1015,9 55 0 0,0
20.07.2019 21:00:00 18,2 11,0 - - 11 6 - - WNW 1014,6 60 36 0,0
20.07.2019 20:00:00 20,4 12,5 - - 16 9 - - WNW 1013,7 55 36 0,0
20.07.2019 19:00:00 21,2 13,0 - - 18 10 - - WNW 1012,7 55 6 0,0
20.07.2019 18:00:00 21,3 13,5 - - 28 15 - - WSW 1011,8 50 36 0,0
20.07.2019 17:00:00 22,2 13,7 - - 29 16 - - WSW 1011,3 50 60 0,0
20.07.2019 16:00:00 22,0 13,4 - - 29 16 48 26 SW 1010,7 10 60 0,0
20.07.2019 15:00:00 22,2 13,5 - - 24 13 - - WSW 1010,2 10 60 0,0
20.07.2019 14:00:00 22,5 13,2 - - 22 12 - - WSW 1009,6 65 54 0,0
20.07.2019 13:00:00 22,2 14,9 - - 24 13 - - WSW 1009,1 55 48 0,0
20.07.2019 12:00:00 21,6 16,4 - - 22 12 - - W 1008,7 70 30 0,0
20.07.2019 11:00:00 19,8 16,1 - - 16 9 - - WSW 1008,1 45 0 0,0
20.07.2019 10:00:00 18,7 16,2 18,9 17,2 18 10 - - WSW 1007,6 10 6 0,2
20.07.2019 09:00:00 18,7 16,7 - - 16 9 - - WSW 1007,2 30 18 0,0
20.07.2019 08:00:00 18,2 17,2 - - 13 7 - - WSW 1006,6 18 0 0,0
20.07.2019 07:00:00 17,7 17,0 - - 13 7 - - SW 1005,8 14 0 0,0
20.07.2019 06:00:00 17,4 16,8 - - 11 6 - - SW 1005,8 5 0 0,4
20.07.2019 05:00:00 17,3 16,9 - - 16 9 - - SSW 1005,8 3,7 0 2,2
20.07.2019 04:00:00 17,3 16,6 - - 13 7 - - SSW 1006,4 12 0 0,0
20.07.2019 03:00:00 16,8 16,1 - - 8 4 - - SSW 1006,9 24 0 0,2
20.07.2019 02:00:00 16,9 16,1 - - 15 8 - - SW 1007,7 14 0 2,4
20.07.2019 01:00:00 17,4 16,9 - - 13 7 - - SSW 1007,9 3,5 - 5,4
20.07.2019 00:00:00 17,3 16,9 - - 15 8 - - SSW 1007,8 6 0 0,4
19.07.2019 23:00:00 17,4 16,9 - - 15 8 - - SSW 1008,4 6 0 0,4
19.07.2019 22:00:00 17,5 16,8 - - 11 6 - - SSW 1008,4 4,6 0 0,4
19.07.2019 21:00:00 17,7 17,0 - - 13 7 - - SSW 1008,8 7 0 0,0
19.07.2019 20:00:00 17,9 17,1 - - 16 9 - - SW 1009,3 5 0 0,6
19.07.2019 19:00:00 18,2 17,3 - - 18 10 - - SW 1009,6 7 0 0,0
19.07.2019 18:00:00 18,1 17,4 - - 24 13 - - SW 1009,7 6 0 0,0
19.07.2019 17:00:00 18,0 17,5 - - 22 12 - - SW 1010,1 6 0 0,6
19.07.2019 16:00:00 18,2 17,5 - - 15 8 - - SSW 1010,4 1,7 0 0,0
19.07.2019 15:00:00 18,0 17,3 - - 18 10 - - SW 1010,7 7 0 0,2
19.07.2019 14:00:00 17,6 16,8 - - 22 12 - - SW 1011,0 2,3 0 0,0
19.07.2019 13:00:00 17,4 16,8 - - 18 10 - - SW 1010,9 6 0 0,2
19.07.2019 12:00:00 16,8 16,3 - - 24 13 - - SSW 1010,9 1,5 0 0,6
19.07.2019 11:00:00 16,6 16,0 - - 24 13 - - S 1011,2 2,5 0 2,4
19.07.2019 10:00:00 16,1 15,3 19,7 17,2 18 10 - - S 1011,8 2,0 0 0,0
19.07.2019 09:00:00 16,0 14,5 - - 18 10 - - S 1012,1 5 0 0,0
19.07.2019 08:00:00 16,0 14,4 - - 11 6 - - SSW 1012,4 10 0 0,2
19.07.2019 07:00:00 16,1 15,6 - - 13 7 - - SSW 1012,5 8 0 1,8
19.07.2019 06:00:00 12,7 12,2 - - 2 1 - - S 1012,9 6 0 0,0
19.07.2019 05:00:00 11,2 10,5 - - 8 4 - - ENE 1012,9 40 0 0,0
19.07.2019 04:00:00 10,0 9,3 - - 2 1 - - SSE 1013,1 35 0 0,0
19.07.2019 03:00:00 10,5 9,6 - - 2 1 - - E 1013,2 30 0 0,0
19.07.2019 02:00:00 10,4 9,0 - - 4 2 - - ENE 1013,6 30 0 0,0
19.07.2019 01:00:00 12,5 11,1 - - 2 1 - - WSW 1013,6 30 - 0,0
19.07.2019 00:00:00 14,3 12,4 - - 2 1 - - WNW 1013,6 35 0 0,0
18.07.2019 23:00:00 14,6 12,3 - - 8 4 - - W 1013,5 28 0 0,0
18.07.2019 22:00:00 16,6 13,4 - - 8 4 - - WSW 1013,3 35 0 0,0
18.07.2019 21:00:00 17,7 12,9 - - 11 6 - - W 1012,9 45 6 0,0
18.07.2019 20:00:00 19,3 12,2 - - 21 11 - - WSW 1012,5 50 6 0,0
18.07.2019 19:00:00 20,3 12,4 - - 21 11 - - WSW 1012,2 60 18 0,0
18.07.2019 18:00:00 22,3 10,2 - - 21 11 - - W 1012,0 10 42 0,0
18.07.2019 17:00:00 22,2 9,9 - - 18 10 - - WNW 1011,9 10 24 0,0
18.07.2019 16:00:00 21,4 10,0 - - 18 10 - - WNW 1012,0 70 - 0,0
18.07.2019 15:00:00 21,0 11,0 - - 22 12 - - WNW - 10 - -
18.07.2019 14:00:00 21,0 11,0 - - 15 8 - - WNW - 10 0 0,0
18.07.2019 13:00:00 20,5 10,8 - - 24 13 - - WNW 1011,6 10 12 0,0
18.07.2019 12:00:00 21,2 12,8 - - 18 10 - - WNW 1011,5 10 - 0,0
18.07.2019 11:00:00 19,2 12,5 - - 21 11 - - WNW 1011,2 10 6 0,0
18.07.2019 10:00:00 18,3 14,8 19,7 17,0 16 9 - - WNW 1010,9 10 0 0,0
18.07.2019 09:00:00 17,9 16,0 - - 22 12 - - W 1010,4 26 0 0,0
18.07.2019 08:00:00 17,8 16,8 - - 13 7 - - WNW 1009,8 22 0 0,4
18.07.2019 07:00:00 17,4 16,5 - - 13 7 - - SW 1009,6 2,5 0 0,0
18.07.2019 06:00:00 17,2 16,5 - - 16 9 - - SW 1009,6 11 0 0,0
18.07.2019 05:00:00 17,0 15,9 - - 13 7 - - SW 1010,0 4,4 0 0,2
18.07.2019 04:00:00 17,4 15,4 - - 15 8 - - WSW 1010,3 17 0 0,0
18.07.2019 03:00:00 17,1 15,0 - - 15 8 - - WSW 1010,9 17 0 0,0
18.07.2019 02:00:00 16,3 14,2 - - 9 5 - - W 1011,6 17 0 0,0
18.07.2019 01:00:00 16,2 14,0 - - 13 7 - - WSW 1011,9 16 - 0,0
18.07.2019 00:00:00 16,6 14,6 - - 11 6 - - WSW 1012,1 10 0 0,0
17.07.2019 23:00:00 17,2 14,9 - - 9 5 - - WSW 1012,3 10 0 0,0
17.07.2019 22:00:00 17,1 15,1 - - 5 3 - - WSW 1012,6 10 0 0,0
17.07.2019 21:00:00 17,4 15,1 - - 13 7 - - WSW 1012,7 13 0 0,0
17.07.2019 20:00:00 18,9 14,2 - - 13 7 - - WSW 1012,4 16 6 0,0
17.07.2019 19:00:00 19,3 13,4 - - 13 7 - - WSW 1012,9 18 24 0,0
17.07.2019 18:00:00 19,6 13,2 - - 18 10 - - WSW 1013,3 18 0 0,0
17.07.2019 17:00:00 19,8 12,2 - - 21 11 - - SW 1013,6 10 0 0,0
17.07.2019 16:00:00 23,0 2,8 - - 15 8 - - SSW 1013,7 20 18 0,0
17.07.2019 15:00:00 22,9 9,6 - - 18 10 - - S 1014,0 10 0 0,0
17.07.2019 14:00:00 23,0 10,7 - - 15 8 - - WSW 1014,4 19 18 0,0
17.07.2019 13:00:00 21,7 10,7 - - 15 8 - - SW 1015,0 10 0 0,0
17.07.2019 12:00:00 21,3 10,1 - - 15 8 - - SW 1015,4 10 6 0,0
17.07.2019 11:00:00 20,5 13,2 - - 11 6 - - WSW 1015,5 18 54 0,0
17.07.2019 10:00:00 19,6 13,3 19,7 17,0 9 5 - - WSW 1015,7 18 54 0,0
17.07.2019 09:00:00 18,5 13,3 - - 5 3 - - - 1015,9 10 60 0,0
17.07.2019 08:00:00 15,1 12,5 - - 2 1 - - NNW 1016,0 14 54 0,0
17.07.2019 07:00:00 11,8 10,9 - - 2 1 - - ENE 1015,9 11 6 0,0
17.07.2019 06:00:00 9,3 8,2 - - 2 1 - - NE 1016,0 13 0 0,0
17.07.2019 05:00:00 9,7 8,8 - - 2 1 - - NNW 1016,1 14 0 0,0
17.07.2019 04:00:00 9,9 9,2 - - 2 1 - - WNW 1016,4 15 0 0,0
17.07.2019 03:00:00 10,5 9,7 - - 0 0 - - N 1016,9 13 0 0,0
17.07.2019 02:00:00 11,2 9,6 - - 4 2 - - N 1017,5 17 0 0,0
17.07.2019 01:00:00 12,5 10,5 - - 5 3 - - N 1018,0 18 - 0,0
17.07.2019 00:00:00 13,2 11,0 - - 4 2 - - WNW 1018,2 18 0 0,0
16.07.2019 23:00:00 14,2 10,9 - - 5 3 - - WNW 1018,3 20 0 0,0
16.07.2019 22:00:00 14,8 10,7 - - 8 4 - - W 1018,5 21 0 0,0
16.07.2019 21:00:00 17,8 12,8 - - 5 3 - - S 1018,2 21 48 0,0
16.07.2019 20:00:00 18,5 12,0 - - 9 5 - - S 1018,2 18 60 0,0
16.07.2019 19:00:00 19,2 11,9 - - 13 7 - - SSW 1018,3 19 60 0,0
16.07.2019 18:00:00 19,5 11,7 - - 15 8 - - S 1018,5 19 60 0,0
16.07.2019 17:00:00 19,8 12,4 - - 16 9 - - S 1018,8 10 60 0,0

tt = Température de l'air
td = dewpoint
tt -20cm = Température de l'air -20cm
tt -100cm = Température de l'air -100cm
ff = Vitesse du vent
fx = gusts
dd = Direction du vent
ppp = reduced air pressure
vv = visibility
sd = Ensoleillement
rr = Quantités de précipitations

stations d'obs. à proximité